• Join FlightAware (Why Join?)
  • Login
  • US Flag 
05:01AM EDT


 

Airport Tracker/Info


-or-


 

Live Flight TrackerFlight Track Log ✈ FDX1958 ✈ 28-Aug-2013 ✈ KSYR - KBTV

Flight Track Log - Related Links

Times and Time Zones

All times are in EDT time to prevent confusion due to time zone crossing. See the FDX1958 flight status page for this flight to view local times or setup timezone preferences in your user account.

Time Position Orientation Groundspeed Altitude Reporting Facility
EDT Latitude Longitude Course Direction KTS MPH feet Rate Location/Type
07:13AM 43.1080 -76.1210 268° West 158 182 1,000  Level FlightAware
07:14AM 43.1080 -76.1360 270° West 155 178 1,800 2,580 Climbing FlightAware
07:14AM 43.1070 -76.1670 267° West 194 223 2,800 2,400 Climbing FlightAware
07:14AM 43.1060 -76.1860 266° West 214 246 3,500 2,340 Climbing FlightAware
07:15AM 43.1140 -76.2160 290° West 246 283 4,300 2,400 Climbing FlightAware
07:15AM 43.1230 -76.2260 321° Northwest 260 299 4,800 3,000 Climbing FlightAware
07:15AM 43.1370 -76.2320 343° North 272 313 5,400 3,720 Climbing FlightAware
07:15AM 43.1680 -76.2260 North 282 325 7,100 4,080 Climbing FlightAware
07:16AM 43.1940 -76.2130 20° North 290 334 8,400 3,960 Climbing FlightAware
07:16AM 43.2190 -76.2010 19° North 292 336 9,700 3,300 Climbing FlightAware
07:17AM 43.2620 -76.1880 12° North 317 365 11,300 2,220 Climbing FlightAware
07:17AM 43.3260 -76.1750 North 375 432 12,400 2,100 Climbing FlightAware
07:18AM 43.3910 -76.1620 North 398 458 14,000 2,700 Climbing FlightAware
07:18AM 43.4120 -76.1500 23° Northeast 403 464 14,600 3,000 Climbing FlightAware
07:18AM 43.4300 -76.1320 36° Northeast 409 471 15,200 3,180 Climbing FlightAware
07:19AM 43.4500 -76.0970 52° Northeast 418 481 16,100 3,000 Climbing FlightAware
07:19AM 43.4850 -76.0190 58° Northeast 429 494 17,700 2,400 Climbing FlightAware
07:20AM 43.5170 -75.9420 60° Northeast 440 506 18,900 1,080 Climbing FlightAware
07:20AM 43.5540 -75.8500 61° Northeast 445 512 19,000 60 Climbing FlightAware
07:21AM 43.5920 -75.7530 62° Northeast 440 506 19,000  Level FlightAware
07:21AM 43.6210 -75.6790 62° Northeast 439 505 19,000  Level FlightAware
07:22AM 43.6510 -75.6030 61° Northeast 437 503 19,000  Level FlightAware
07:23AM 43.6900 -75.5020 62° Northeast 437 503 19,000  Level FlightAware
07:23AM 43.7210 -75.4240 61° Northeast 438 504 19,000  Level FlightAware
07:24AM 43.7560 -75.3350 61° Northeast 439 505 19,000  Level FlightAware
07:24AM 43.7950 -75.2330 62° Northeast 440 506 19,000  Level FlightAware
07:25AM 43.8350 -75.1320 61° Northeast 438 504 19,000  Level FlightAware
07:26AM 43.8660 -75.0500 62° Northeast 439 505 19,000  Level FlightAware
07:26AM 43.9020 -74.9580 61° Northeast 434 499 19,000  Level FlightAware
07:27AM 43.9380 -74.8610 63° Northeast 435 501 19,000  Level FlightAware
07:28AM 43.9700 -74.7790 62° Northeast 434 499 19,000  Level FlightAware
07:28AM 44.0060 -74.6870 61° Northeast 439 505 19,000  Level FlightAware
07:29AM 44.0530 -74.5610 63° Northeast 440 506 19,000  Level FlightAware
07:30AM 44.1070 -74.4210 62° Northeast 441 507 19,000  Level FlightAware
07:30AM 44.1410 -74.3310 62° Northeast 439 505 19,000 -1,080 Level FlightAware
07:31AM 44.1710 -74.2490 63° Northeast 433 498 17,800 -2,460 Descending FlightAware
07:32AM 44.2020 -74.1660 62° Northeast 422 486 16,300 -2,820 Descending FlightAware
07:32AM 44.2350 -74.0770 63° Northeast 413 475 14,300 -2,880 Descending FlightAware
07:33AM 44.2690 -73.9860 62° Northeast 403 464 12,700 -2,580 Descending FlightAware
07:33AM 44.2980 -73.9070 63° Northeast 389 448 11,300 -1,440 Descending FlightAware
07:34AM 44.3290 -73.8240 62° Northeast 366 421 11,000 -300 Descending FlightAware
07:35AM 44.3560 -73.7640 58° Northeast 322 371 11,000 -240 Level FlightAware
07:35AM 44.3830 -73.7070 56° Northeast 291 335 10,800 -840 Descending FlightAware
07:36AM 44.4110 -73.6490 56° Northeast 281 323 10,000 -1,440 Descending FlightAware
07:36AM 44.4220 -73.6250 57° Northeast 279 321 9,500 -1,980 Descending FlightAware
07:37AM 44.4440 -73.5810 55° Northeast 278 320 8,500 -2,100 Descending FlightAware
07:37AM 44.4560 -73.5590 53° Northeast 275 316 8,000 -2,280 Descending FlightAware
07:37AM 44.4700 -73.5300 56° Northeast 266 306 7,200 -2,400 Descending FlightAware
07:37AM 44.4800 -73.5100 55° Northeast 266 306 6,600 -2,340 Descending FlightAware
07:38AM 44.4930 -73.4850 54° Northeast 267 307 5,800 -2,280 Descending FlightAware
07:38AM 44.5130 -73.4450 55° Northeast 272 313 4,700 -2,400 Descending FlightAware
07:39AM 44.5280 -73.4170 53° Northeast 264 304 4,000 -2,160 Descending FlightAware
07:39AM 44.5380 -73.3970 55° Northeast 262 302 3,500 -720 Descending FlightAware
07:39AM 44.5530 -73.3680 54° Northeast 262 302 3,500 -780 Level FlightAware
07:41AM 44.5417 -73.2703 54° Northeast 182 209 2,200 -900 Descending Boston Center
07:42AM 44.5169 -73.2261 128° Southeast 152 175 1,500 -720 Descending Boston Center
07:43AM 44.4922 -73.1881 132° Southeast 134 154 800 -660 Descending Boston Center
07:44AM 44.4694 -73.1497 130° Southeast 128 147 300 5,040 Descending Boston Center
07:45AM 44.4447 -73.1175 137° Southeast 128 147 11,000 5,340 Climbing Boston Center
07:46AM 44.4178 -73.0794 135° Southeast 128 147 11,000  Level Boston Center
07:47AM 44.3931 -73.0444 135° Southeast 128 147 11,000  Level Boston Center